TimeEST,TemperatureF,Dew PointF,Humidity,Sea Level PressureIn,VisibilityMPH,Wind Direction,Wind SpeedMPH,Gust SpeedMPH,PrecipitationIn,Events,Conditions,WindDirDegrees,DateUTC
12:53 AM,34.0,26.1,73,30.17,10.0,NE,4.6,-,N/A,,Overcast,40,2012-12-28 05:53:00
1:53 AM,34.0,26.1,73,30.16,10.0,NE,3.5,-,N/A,,Overcast,40,2012-12-28 06:53:00
2:53 AM,33.1,26.1,75,30.16,10.0,ENE,5.8,-,N/A,,Overcast,70,2012-12-28 07:53:00
3:53 AM,33.1,26.1,75,30.15,10.0,ENE,6.9,-,N/A,,Overcast,60,2012-12-28 08:53:00
4:53 AM,33.1,26.1,75,30.15,10.0,NE,3.5,-,N/A,,Overcast,40,2012-12-28 09:53:00
5:53 AM,33.1,27.0,78,30.14,10.0,NE,3.5,-,N/A,,Overcast,40,2012-12-28 10:53:00
6:53 AM,33.1,27.0,78,30.14,10.0,NE,4.6,-,N/A,,Overcast,50,2012-12-28 11:53:00
7:46 AM,33.8,26.6,75,30.09,10.0,Calm,Calm,-,N/A,,Overcast,0,2012-12-28 12:46:00
7:53 AM,33.1,27.0,78,30.14,10.0,NE,4.6,-,N/A,,Overcast,50,2012-12-28 12:53:00
8:37 AM,33.8,26.6,75,30.11,10.0,Calm,Calm,-,N/A,,Overcast,0,2012-12-28 13:37:00
8:53 AM,34.0,28.0,79,30.16,10.0,Calm,Calm,-,N/A,,Mostly Cloudy,0,2012-12-28 13:53:00
9:07 AM,33.8,26.6,75,30.12,10.0,Calm,Calm,-,N/A,,Scattered Clouds,0,2012-12-28 14:07:00
9:53 AM,36.0,28.0,73,30.18,10.0,Calm,Calm,-,N/A,,Overcast,0,2012-12-28 14:53:00
10:53 AM,37.0,28.0,70,30.18,10.0,Calm,Calm,-,N/A,,Overcast,0,2012-12-28 15:53:00
11:53 AM,37.9,28.0,68,30.14,10.0,Calm,Calm,-,N/A,,Mostly Cloudy,0,2012-12-28 16:53:00
12:53 PM,39.9,28.9,65,30.11,10.0,Calm,Calm,-,N/A,,Overcast,0,2012-12-28 17:53:00
1:53 PM,41.0,28.9,62,30.06,10.0,Calm,Calm,-,N/A,,Overcast,0,2012-12-28 18:53:00
2:53 PM,41.0,28.9,62,30.04,10.0,Calm,Calm,-,N/A,,Overcast,0,2012-12-28 19:53:00
3:53 PM,41.0,30.0,65,30.01,10.0,Calm,Calm,-,N/A,,Overcast,0,2012-12-28 20:53:00
4:53 PM,41.0,30.9,67,30.02,10.0,Calm,Calm,-,0.00,Rain,Light Rain,0,2012-12-28 21:53:00
5:53 PM,39.9,32.0,73,30.00,10.0,NE,4.6,-,0.00,,Overcast,50,2012-12-28 22:53:00
6:53 PM,39.0,33.1,79,29.98,10.0,East,5.8,-,0.01,Rain,Light Rain,90,2012-12-28 23:53:00
7:53 PM,39.0,34.0,82,29.96,10.0,Calm,Calm,-,0.01,,Overcast,0,2012-12-29 00:53:00
8:53 PM,39.0,34.0,82,29.92,10.0,Calm,Calm,-,N/A,,Overcast,0,2012-12-29 01:53:00
9:53 PM,39.0,34.0,82,29.90,9.0,Calm,Calm,-,0.00,Rain,Light Rain,0,2012-12-29 02:53:00
10:53 PM,37.9,35.1,89,29.86,5.0,Calm,Calm,-,0.05,Rain,Light Rain,0,2012-12-29 03:53:00
11:53 PM,39.0,37.0,93,29.84,6.0,Calm,Calm,-,0.01,Rain,Light Rain,0,2012-12-29 04:53:00